Regional Weather Roundup
Issued by NWS Columbia, SC

Home | Current Version | Previous Version | Text Only | Print | Product List | Glossary On
Versions: 1 2 3 4 5 6 7 8 9 10 11 12 13 14 15 16 17 18 19 20 21 22 23 24 25 26 27
000
ASUS42 KCAE 202310
RWRCAE
REGIONAL WEATHER ROUNDUP
NATIONAL WEATHER SERVICE COLUMBIA SC
700 PM EDT SUN APR 20 2014

NOTE: "FAIR" INDICATES FEW OR NO CLOUDS BELOW 12,000 FEET WITH NO
SIGNIFICANT WEATHER AND/OR OBSTRUCTIONS TO VISIBILITY.

NOT ALL STATIONS ARE QUALITY CONTROLLED BY THE NATIONAL
WEATHER SERVICE. USE DATA WITH CAUTION...ESPECIALLY
DEWPOINT OBSERVATIONS.

SCZ001>056-GAZ040-063>065-077-210000-
...UPSTATE SOUTH CAROLINA...

CITY           SKY/WX    TMP DP  RH WIND       PRES   REMARKS
ANDERSON       SUNNY     70  34  26 E13       30.16F
LIBERTY        FAIR      71  32  24 MISG      30.16S
SPARTANBURG    FAIR      70  34  26 NE7       30.18S
CLEMSON        SUNNY     72  30  21 E6        30.17S
GREENVILLE     SUNNY     70  30  22 E12       30.18S
GREENWOOD      MOSUNNY   71  34  25 NE9       30.17F
GREER          SUNNY     69  32  25 E10       30.17S
ROCK HILL      CLOUDY    70  32  24 NE6       30.18S
LAURENS        FAIR      70  32  24 E8        30.18S


...CENTRAL SOUTH CAROLINA...

CITY           SKY/WX    TMP DP  RH WIND       PRES   REMARKS
COLUMBIA APT   CLOUDY    68  40  35 N9        30.15S
COLUMBIA OWENS CLOUDY    68  40  35 VRB5      30.16S
DARLINGTON     CLOUDY    64  46  52 N10       30.15S
FLORENCE       CLOUDY    65  50  58 NE14      30.12S
MCENTIRE ANGB  CLOUDY    66  43  44 N6        30.14F
ORANGEBURG     CLOUDY    66  45  46 NE14      30.13S
SUMTER SHAW    CLOUDY    65  43  44 N12       30.12S
NEWBERRY       CLOUDY    68  37  32 NE5       30.19S
AIKEN          CLOUDY    66  46  48 N8        30.18S
BARNWELL       CLOUDY    66  46  48 NE7       30.14S
MANNING        CLOUDY    64  36  34 N8G16     30.12S
CAMDEN         CLOUDY    66  43  42 N6        30.16S
LANCASTER      CLOUDY    66  37  34 NE8       30.18R
WINNSBORO      FAIR      64  41  42 N3        30.16S


...EASTERN AND COASTAL SOUTH CAROLINA...

CITY           SKY/WX    TMP DP  RH WIND       PRES   REMARKS
MYRTLE BEACH   CLOUDY    63  52  67 N21G29    30.06S
N MYRTLE BCH   CLOUDY    61  52  72 NE18G29   30.06S
CONWAY         CLOUDY    61  54  77 N10G17    30.09S
MARION         CLOUDY    63  50  63 N16G25    30.12S
HARTSVILLE     CLOUDY    68  43  40 N14       30.15S
FLORENCE       CLOUDY    65  50  58 NE14      30.12S
DARLINGTON     CLOUDY    64  46  52 N10       30.15S
CHARLESTON APT CLOUDY    65  51  60 N13       30.08F
MOUNT PLEASANT CLOUDY   N/A N/A N/A N6G18     30.07S
WALTERBORO     CLOUDY    64  52  63 N8        30.12S
BEAUFORT       CLOUDY    66  51  58 NE12      30.09F


...EASTERN GEORGIA...

CITY           SKY/WX    TMP DP  RH WIND       PRES   REMARKS
AUGUSTA BUSH F CLOUDY    69  42  37 NE9       30.14R
AUGUSTA DANIEL CLOUDY    70  41  34 NE8       30.15R
THOMSON        SUNNY     70  47  44 NE7       30.19S
WASHINGTON     FAIR      72  37  28 NE6       30.15R
CLAXTON        CLOUDY    70  55  60 NE5       30.11R
SYLVANIA       CLOUDY    67  53  59 NE7       30.13S
STATESBORO     CLOUDY    66  48  51 NE8       30.12R
SAVANNAH       PTSUNNY   68  51  54 N14       30.09S


...SOUTHERN NORTH CAROLINA...

CITY           SKY/WX    TMP DP  RH WIND       PRES   REMARKS
CHARLOTTE      MOSUNNY   68  32  26 NE9       30.19S
MONROE         CLOUDY    66  36  32 NE10      30.17S
WADESBORO      CLOUDY    67  40  37 N7        30.17R
ROCKINGHAM       N/A     66  45  46 N9        30.15S
RUTHERFORDTON  SUNNY     68  32  25 E9        30.19S
ASHEVILLE      SUNNY     68  23  18 E7        30.19F

$$



USA.gov is the U.S. government's official web portal to all federal, state and local government web resources and services.